| time (UTC) | temp C | wind direction | speed KPH | gust KPH | rain 1hr cm | rain 24hr cm | rain mn cm | humidity % | barometer mb |
| 20260504100607 | 32 | 0.0 | 0.0 | 0.00 | 0.00 | 0.00 | 44 | 1003.1 | |
| 20260504050404 | 31 | 0.0 | 0.0 | 0.00 | 0.00 | 0.00 | 43 | 1004.6 | |
| 20260504045359 | 31 | 0.0 | 0.0 | 0.00 | 0.00 | 0.00 | 43 | 1004.7 | |
| 20260504044357 | 31 | 0.0 | 0.0 | 0.00 | 0.00 | 0.00 | 42 | 1004.8 | |
| 20260504043352 | 31 | 0.0 | 0.0 | 0.00 | 0.00 | 0.00 | 42 | 1004.9 | |
| 20260504042347 | 31 | 0.0 | 0.0 | 0.00 | 0.00 | 0.00 | 42 | 1004.9 | |
| 20260504041343 | 31 | 0.0 | 0.0 | 0.00 | 0.00 | 0.00 | 42 | 1004.9 | |
| 20260504040339 | 31 | 0.0 | 0.0 | 0.00 | 0.00 | 0.00 | 41 | 1004.8 | |
| 20260504035335 | 31 | 0.0 | 0.0 | 0.00 | 0.00 | 0.00 | 40 | 1005.0 | |
| 20260504033327 | 30 | 0.0 | 0.0 | 0.00 | 0.00 | 0.00 | 40 | 1005.1 | |
| 20260504032323 | 30 | 0.0 | 0.0 | 0.00 | 0.00 | 0.00 | 39 | 1005.1 | |
| 20260504031319 | 30 | 0.0 | 0.0 | 0.00 | 0.00 | 0.00 | 37 | 1005.0 | |
| 20260504030314 | 30 | 0.0 | 0.0 | 0.00 | 0.00 | 0.00 | 36 | 1004.9 | |
| 20260504025310 | 30 | 0.0 | 0.0 | 0.00 | 0.00 | 0.00 | 35 | 1004.9 | |
| 20260504024306 | 30 | 0.0 | 0.0 | 0.00 | 0.00 | 0.00 | 33 | 1004.9 | |
| 20260504023302 | 30 | 0.0 | 0.0 | 0.00 | 0.00 | 0.00 | 32 | 1004.9 | |
| 20260504022258 | 30 | 0.0 | 0.0 | 0.00 | 0.00 | 0.00 | 33 | 1004.8 | |
| 20260504014241 | 30 | 0.0 | 0.0 | 0.00 | 0.00 | 0.00 | 30 | 1004.3 | |
| 20260504013237 | 30 | 0.0 | 0.0 | 0.00 | 0.00 | 0.00 | 31 | 1004.3 | |
| 20260504012234 | 30 | 0.0 | 0.0 | 0.00 | 0.00 | 0.00 | 31 | 1004.1 | |
| 20260504010225 | 30 | 0.0 | 0.0 | 0.00 | 0.00 | 0.00 | 34 | 1004.2 | |
| 20260504005221 | 31 | 0.0 | 0.0 | 0.00 | 0.00 | 0.00 | 35 | 1004.3 | |
| 20260504004217 | 31 | 0.0 | 0.0 | 0.00 | 0.00 | 0.00 | 37 | 1004.4 | |
| 20260504003213 | 31 | 0.0 | 0.0 | 0.00 | 0.00 | 0.00 | 35 | 1004.2 | |
| 20260504002210 | 31 | 0.0 | 0.0 | 0.00 | 0.00 | 0.00 | 33 | 1004.2 | |
| 20260504001205 | 31 | 0.0 | 0.0 | 0.00 | 0.00 | 0.00 | 33 | 1004.1 | |
| 20260504000201 | 31 | 0.0 | 0.0 | 0.00 | 0.00 | 0.00 | 34 | 1003.9 | |
| 20260503235156 | 32 | 0.0 | 0.0 | 0.00 | 0.00 | 0.00 | 34 | 1003.7 | |
| 20260503234152 | 32 | 0.0 | 0.0 | 0.00 | 0.00 | 0.00 | 34 | 1003.7 | |
| 20260503233148 | 32 | 0.0 | 0.0 | 0.00 | 0.00 | 0.00 | 35 | 1003.5 | |
| 20260503232144 | 33 | 0.0 | 0.0 | 0.00 | 0.00 | 0.00 | 37 | 1003.5 | |
| 20260503231139 | 33 | 0.0 | 0.0 | 0.00 | 0.00 | 0.00 | 41 | 1003.3 | |
| 20260503230136 | 33 | 0.0 | 0.0 | 0.00 | 0.00 | 0.00 | 41 | 1003.1 | |
| 20260503225132 | 33 | 0.0 | 0.0 | 0.00 | 0.00 | 0.00 | 41 | 1003.0 | |
| 20260503224128 | 33 | 0.0 | 0.0 | 0.00 | 0.00 | 0.00 | 41 | 1003.0 | |
| 20260503223123 | 33 | 0.0 | 0.0 | 0.00 | 0.00 | 0.00 | 41 | 1003.0 | |
| 20260503222119 | 33 | 0.0 | 0.0 | 0.00 | 0.00 | 0.00 | 41 | 1003.1 | |
| 20260503221115 | 33 | 0.0 | 0.0 | 0.00 | 0.00 | 0.00 | 41 | 1003.2 | |
| 20260503215107 | 33 | 0.0 | 0.0 | 0.00 | 0.00 | 0.00 | 41 | 1003.0 | |
| 20260503214104 | 33 | 0.0 | 0.0 | 0.00 | 0.00 | 0.00 | 41 | 1003.0 | |
| 20260503213059 | 33 | 0.0 | 0.0 | 0.00 | 0.00 | 0.00 | 41 | 1003.1 | |
| 20260503212055 | 33 | 0.0 | 0.0 | 0.00 | 0.00 | 0.00 | 41 | 1003.1 | |
| 20260503211050 | 33 | 0.0 | 0.0 | 0.00 | 0.00 | 0.00 | 41 | 1003.1 | |
| 20260503210046 | 33 | 0.0 | 0.0 | 0.00 | 0.00 | 0.00 | 41 | 1003.2 | |
| 20260503205042 | 33 | 0.0 | 0.0 | 0.00 | 0.00 | 0.00 | 41 | 1003.2 | |
| 20260503204038 | 33 | 0.0 | 0.0 | 0.00 | 0.00 | 0.00 | 41 | 1003.5 | |
| 20260503203034 | 33 | 0.0 | 0.0 | 0.00 | 0.00 | 0.00 | 41 | 1003.5 | |
| 20260503202030 | 33 | 0.0 | 0.0 | 0.00 | 0.00 | 0.00 | 41 | 1003.5 | |
| 20260503201026 | 33 | 0.0 | 0.0 | 0.00 | 0.00 | 0.00 | 41 | 1003.5 | |
| 20260503200022 | 33 | 0.0 | 0.0 | 0.00 | 0.00 | 0.00 | 41 | 1003.4 | |
| 20260503195018 | 33 | 0.0 | 0.0 | 0.00 | 0.00 | 0.00 | 41 | 1003.7 | |
| 20260503194013 | 33 | 0.0 | 0.0 | 0.00 | 0.00 | 0.00 | 41 | 1003.5 | |
| 20260503193010 | 33 | 0.0 | 0.0 | 0.00 | 0.00 | 0.00 | 41 | 1003.6 | |
| 20260503192005 | 33 | 0.0 | 0.0 | 0.00 | 0.00 | 0.00 | 42 | 1003.6 | |
| 20260503191001 | 33 | 0.0 | 0.0 | 0.00 | 0.00 | 0.00 | 42 | 1003.7 | |
| 20260503185957 | 33 | 0.0 | 0.0 | 0.00 | 0.00 | 0.00 | 42 | 1004.1 | |
| 20260503184953 | 33 | 0.0 | 0.0 | 0.00 | 0.00 | 0.00 | 42 | 1004.2 | |
| 20260503182945 | 33 | 0.0 | 0.0 | 0.00 | 0.00 | 0.00 | 42 | 1004.7 | |
| 20260503181940 | 33 | 0.0 | 0.0 | 0.00 | 0.00 | 0.00 | 43 | 1004.9 | |
| 20260503175933 | 32 | 0.0 | 0.0 | 0.00 | 0.00 | 0.00 | 44 | 1005.1 | |
| 20260503173924 | 32 | 0.0 | 0.0 | 0.00 | 0.00 | 0.00 | 47 | 1005.1 | |
| 20260503172920 | 32 | 0.0 | 0.0 | 0.00 | 0.00 | 0.00 | 46 | 1005.1 | |
| 20260503171916 | 32 | 0.0 | 0.0 | 0.00 | 0.00 | 0.00 | 46 | 1005.0 | |
| 20260503170911 | 32 | 0.0 | 0.0 | 0.00 | 0.00 | 0.00 | 48 | 1005.3 | |
| 20260503110554 | 31 | 0.0 | 0.0 | 0.00 | 0.00 | 0.00 | 41 | 1004.6 |